Regional Weather Roundup
Issued by NWS

Home | Current Version | Previous Version | Graphics & Text | Print | Product List | Glossary On
Versions: 1 2 3 4 5 6 7 8 9 10 11 12 13 14 15 16 17 18 19 20 21 22 23 24 25 26 27 28 29 30 31 32 33 34 35 36 37 38 39 40 41 42 43 44 45 46 47 48 49 50
000
ASUS43 KMPX 210410
RWRMN
WEATHER ROUNDUP FOR MINNESOTA
NATIONAL WEATHER SERVICE TWIN CITIES/CHANHASSEN MN
1100 PM CDT SUN MAY 20 2018


NOTE: "FAIR" INDICATES FEW OR NO CLOUDS BELOW 12,000 FEET WITH NO
SIGNIFICANT WEATHER AND/OR OBSTRUCTIONS TO VISIBILITY. N/A MEANS
CURRENT SKY AND/OR WEATHER CONDITIONS ARE NOT AVAILABLE.

MNZ060>063-068>070-210500-
   Twin Cities Metro

CITY           SKY/WX    TMP DP  RH WIND       PRES   REMARKS
TWIN CITIES    MOCLDY    64  34  32 E6        30.13S
ST PAUL        FAIR      63  39  41 CALM      30.13F
CRYSTAL        FAIR      55  36  48 CALM      30.12F
BLAINE         FAIR      55  39  54 CALM      30.13F
LAKEVILLE      MOCLDY    59  48  67 S3        30.14R
EDEN PRAIRIE   MOCLDY    62  36  37 E5        30.12S
SOUTH ST PAUL  FAIR      63  32  30 CALM      30.13S
LAKE ELMO      FAIR      50  41  71 CALM      30.15F
$$
MNZ001>005-007-008-013>017-022>024-027-028-210500-
   Northwest Minnesota

CITY           SKY/WX    TMP DP  RH WIND       PRES   REMARKS
BEMIDJI        FAIR      48  35  61 CALM      30.15S
HALLOCK        FAIR      55  37  50 SE9       30.10S
ROSEAU         FAIR      55  43  62 S3        30.12S
WARROAD        FAIR      55  43  62 S3        30.13S
THIEF RVR FALL FAIR      57  33  40 SE3       30.15S
CROOKSTON      FAIR      57  34  41 SE6       30.13S
FOSSTON        FAIR      50  27  40 SE3       30.16S
DETROIT LAKES  FAIR      57  39  51 CALM      30.16S
MOORHEAD       FAIR      55  32  41 CALM      30.13F
PARK RAPIDS    FAIR      49  34  56 CALM      30.15S
MAHNOMEN       FAIR      56  37  49 SE9       30.14S
$$
MNZ006-009>011-018-025>026-210500-
   North Central Minnesota

CITY           SKY/WX    TMP DP  RH WIND       PRES   REMARKS
BAUDETTE       FAIR      56  37  49 S5        30.14S
FLAG ISLAND    FAIR      55  46  71 S5        30.11R
INTL FALLS     FAIR      45  42  89 CALM      30.14R
WASKISH        FAIR      45  37  76 CALM      30.15S
BIG FORK       FAIR      46  37  71 CALM      30.16S
LONGVILLE      FAIR      45  41  87 CALM      30.16S
GRAND RAPIDS   FAIR      47  37  68 S5        30.18S
CRANE LAKE     FAIR      43  39  87 CALM      30.17S
ORR            FAIR      54  30  40 CALM      30.13S
COOK           FAIR      48  39  71 CALM      30.16F
WALKER         FAIR      47  35  63 CALM      30.16R
$$
MNZ012-019>021-037-210500-
   Northeast Minnesota

CITY           SKY/WX    TMP DP  RH WIND       PRES   REMARKS
DULUTH         FAIR      49  31  49 CALM      30.17S
ELY            FAIR      52  36  54 CALM      30.16S
HIBBING        FAIR      42  35  76 CALM      30.16S
EVELETH        FAIR      45  39  81 SE5       30.18S
DULUTH HARBOR  FAIR      54  48  82 N3        30.18R
TWO HARBORS    FAIR      45  34  65 CALM      30.16S
SILVER BAY     FAIR      43  34  70 CALM      30.16S
GRAND MARAIS     N/A     41  34  76 CALM      30.17S
G MARAIS ARPRT FAIR      45  34  65 CALM      30.19F
$$
MNZ029>031-032-039>041-046>048-054>057-064-210500-
   West Central Minnesota

CITY           SKY/WX    TMP DP  RH WIND       PRES   REMARKS
FERGUS FALLS   FAIR      59  34  38 E3        30.10S
WHEATON        CLEAR     54  27  35 E6        30.14S
MORRIS         CLOUDY    55  27  33 E8        30.12S
ALEXANDRIA     FAIR      56  32  40 E6        30.15S
ELBOW LAKE     FAIR      58  34  40 SE8       30.14S
WADENA         FAIR      48  36  61 CALM      30.15S
GLENWOOD       FAIR      54  28  37 E5        30.14F
APPLETON       CLOUDY    63  27  25 E7        30.11S
BENSON         CLOUDY    59  27  29 E5        30.14S
ORTONVILLE     CLOUDY    61  30  31 E9        30.11S
MADISON        CLOUDY    64  28  25 E6        30.11S
WILLMAR        FAIR      57  30  35 E5        30.15S
$$
MNZ033>034-036-042>043-049>051-058-059-210500-
   Central Minnesota

CITY           SKY/WX    TMP DP  RH WIND       PRES   REMARKS
ST CLOUD       FAIR      48  35  60 E3        30.14S
SAUK CENTRE    FAIR      50  38  64 E5        30.14F
PAYNESVILLE    FAIR      52  36  54 CALM      30.14S
AITKIN         FAIR      41  37  87 CALM      30.15S
PINE RIVER     FAIR      45  36  70 CALM      30.19S
BRAINERD       FAIR      49  38  65 CALM      30.16S
STAPLES        FAIR      52  34  50 CALM      30.15F
LONG PRAIRIE   FAIR      50  36  57 CALM      30.15F
LITTLE FALLS   FAIR      46  36  66 CALM      30.15
LITCHFIELD     FAIR      59  32  36 CALM      30.13S
BUFFALO        FAIR      54  31  41 E3        30.14S
MAPLE LAKE     FAIR      52  40  61 CALM      30.14F
HUTCHINSON     FAIR      58  37  46 NE3       30.14S
$$
MNZ037-044-045-052-053-210500-
   East Central Minnesota

CITY           SKY/WX    TMP DP  RH WIND       PRES   REMARKS
PRINCETON      FAIR      48  37  66 CALM      30.14F
MORA           FAIR      46  36  66 CALM      30.17F
CAMBRIDGE      FAIR      54  37  54 CALM      30.15S
RUSH CITY      FAIR      47  37  68 CALM      30.15S
MOOSE LAKE     FAIR      45  36  70 NE5       30.15F
HINCKLEY       FAIR      45  39  81 CALM      30.16S
CLOQUET        FAIR      45  28  53 CALM      30.17S
MCGREGOR       FAIR      46  34  61 CALM      30.17S
$$
MNZ071>073-080-081-089-090-097-098-210500-
   Southwest Minnesota

CITY           SKY/WX    TMP DP  RH WIND       PRES   REMARKS
MONTEVIDEO     CLOUDY    61  30  31 SE5       30.12S
GRANITE FALLS  CLOUDY    65  51  60 E3        30.13S
CANBY          CLOUDY    63  50  63 E3        30.12S
MARSHALL       CLOUDY    62  51  67 SE8       30.11S
REDWOOD FALLS  CLOUDY    63  50  62 SE7       30.12R
OLIVIA         CLOUDY    63  34  34 E5        30.12R
PIPESTONE      CLOUDY    59  52  77 SE5       30.11S
WINDOM         RAIN      59  41  51 E6        30.12S
WORTHINGTON    LGT RAIN  56  53  90 E6        30.13R
JACKSON        RAIN      55  52  88 E6        30.13S
TRACY          DRIZZLE   62  53  72 SE7       30.12S
SLAYTON        CLOUDY    59  52  76 E8        30.13S
$$
MNZ065>067-074>077-082>085-091>093-210500-
   South Central Minnesota

CITY           SKY/WX    TMP DP  RH WIND       PRES   REMARKS
MANKATO        CLOUDY    62  49  62 SE12      30.13S
NEW ULM        CLOUDY    63  48  59 SE8       30.13R
ST JAMES       CLOUDY    59  54  82 SE6       30.14S
FAIRMONT       MOCLDY    57  52  83 SE7       30.13S
GLENCOE        CLOUDY    62  40  44 CALM      30.12S
FARIBAULT      CLOUDY    63  48  59 CALM      30.14S
OWATONNA       CLOUDY    61  48  63 E8        30.14R
WASECA         CLOUDY    59  52  77 E12       30.14S
ALBERT LEA     CLOUDY    55  48  76 E9        30.13F
$$
MNZ078>079-086>088-094>096-210500-
   Southeast Minnesota

CITY           SKY/WX    TMP DP  RH WIND       PRES   REMARKS
ROCHESTER      CLOUDY    56  52  86 SE8       30.16S
RED WING       CLOUDY    63  41  45 SE8       30.13F
STANTON        CLOUDY    62  47  58 SE6       30.13S
DODGE CENTER   CLOUDY    55  48  76 E7        30.15S
WINONA         FAIR      54  48  82 CALM      30.15R
AUSTIN         CLOUDY    55  52  88 SE8       30.14S
PRESTON        CLOUDY    55  50  85 SE5       30.16S
$$
ABBREVIATIONS USED IN REMARKS
   TC - TEMPERATURES IN CELSIUS
  WCI - WIND CHILL INDEX
   HX - HEAT INDEX
  VSB - VISIBILITY
$$



USA.gov is the U.S. government's official web portal to all federal, state and local government web resources and services.